Miscellaneous Local Product
Issued by NWS Hastings, NE

Current Version | Previous Version | Text Only | Print | Product List | Glossary On
Versions: 1 2 3 4 5 6 7 8 9 10 11 12 13 14 15 16 17 18 19 20 21 22 23 24 25 26 27 28 29 30 31 32 33 34 35 36 37 38 39 40 41 42 43 44 45 46 47 48 49 50
454
AXUS43 KGID 200002
MISGRI

GID CWA HOURLY WEATHER ROUNDUP
NATIONAL WEATHER SERVICE HASTINGS NE
700 PM CDT SAT AUG 19 2017

NOTE: "FAIR" INDICATES FEW OR NO CLOUDS BELOW 12,000 FEET WITH NO
SIGNIFICANT WEATHER AND/OR OBSTRUCTIONS TO VISIBILITY.

...SOUTH CENTRAL NEBRASKA...

CITY           SKY/WX    TMP DP  RH WIND       PRES   REMARKS
GRAND ISLAND   SUNNY     84  73  69 SE14      29.82F HX  90
HASTINGS       SUNNY     87  70  56 SE14      29.84F HX  92
KEARNEY        SUNNY     86  69  56 SE13      29.82F HX  90
ORD            CLOUDY    85  66  53 SE8       29.83R
YORK           MOSUNNY   84  72  65 SE8       29.84F
AURORA         SUNNY     83  70  64 SE10      29.83F
LEXINGTON      SUNNY     86  67  52 SE12      29.82F
HOLDREGE       SUNNY     85  64  49 SE9       29.83F
HEBRON         SUNNY     87  71  59 SE8       29.85F HX  93

...NEBRASKA PANHANDLE...

CITY           SKY/WX    TMP DP  RH WIND       PRES   REMARKS
CHADRON        SUNNY     95  34  11 CALM      29.83F HX  90
ALLIANCE       SUNNY     90  43  19 N6        29.89F
SCOTTSBLUFF    SUNNY     94  34  12 N6        29.89F
SIDNEY         SUNNY     92  45  19 NE9       29.94S

...WESTERN AND NORTH CENTRAL NEBRASKA...

CITY           SKY/WX    TMP DP  RH WIND       PRES   REMARKS
VALENTINE      SUNNY     96  49  20 W8        29.78F HX  93
AINSWORTH      SUNNY     90  64  42 W3        29.78S HX  91
ONEILL         CLOUDY    81  70  69 SE14G22   29.80F
BROKEN BOW     CLOUDY    90  69  50 S14       29.83S HX  94
IMPERIAL       CLOUDY    91  59  33 S6        29.85S HX  90
NORTH PLATTE   CLOUDY    87  68  52 SE3       29.82F HX  90
MCCOOK         CLOUDY    92  64  39 S12       29.82S HX  93

...EASTERN NEBRASKA...

CITY           SKY/WX    TMP DP  RH WIND       PRES   REMARKS
NORFOLK        SUNNY     78  67  68 SE10      29.84S
SO SIOUX CITY  SUNNY     80  67  64 S10       29.84F
TEKAMAH        SUNNY     81  67  62 SE8       29.85F
COLUMBUS       SUNNY     81  69  67 E10       29.84F
ALBION         SUNNY     81  70  70 SE7       29.84S
OMAHA EPPLEY   MOSUNNY   85  62  46 SE15      29.87F
OFFUTT AFB     SUNNY     83  62  47 SE8       29.86F
MILLARD        SUNNY     84  62  47 SE10      29.86F
LINCOLN        SUNNY     85  66  53 SE12      29.86F
NEBRASKA CITY  SUNNY     83  67  59 SE6       29.88F
BEATRICE       SUNNY     92  62  36 S9        29.85F HX  93
FALLS CITY     SUNNY     85  68  56 SE7       29.87F

...NORTHERN KANSAS...

CITY           SKY/WX    TMP DP  RH WIND       PRES   REMARKS
GOODLAND       SUNNY     92  52  25 SW13      29.89F
HILL CITY      SUNNY     95  56  26 S7        29.83F HX  93
NORTON         CLEAR     93  48  21 S9        29.82F HX  90
PHILLIPSBURG   SUNNY     91  55  29 SE7G16    29.82S
SMITH CENTER   MOSUNNY   88  61  40 SE10      29.83F
HAYS           SUNNY     95  64  35 SE14      29.84S HX  97
RUSSELL        SUNNY     95  60  31 SE17      29.83F HX  95
CONCORDIA      SUNNY     87  73  62 SE9       29.84F HX  94
SALINA         SUNNY     98  61  29 S15       29.84F HX  98
TOPEKA         SUNNY     89  73  59 SE7       29.87F HX  97



USA.gov is the U.S. government's official web portal to all federal, state and local government web resources and services.